Regional Weather Roundup
Issued by NWS New Orleans/Baton Rouge, LA

Home | Current Version | Previous Version | Text Only | Print | Product List | Glossary On
Versions: 1 2 3 4 5 6 7 8 9 10 11 12 13 14 15 16 17 18 19 20 21 22 23 24 25 26 27 28
000
ASUS44 KLIX 201413
RWRLIX
NEW ORLEANS REGIONAL WEATHER ROUNDUP
NATIONAL WEATHER SERVICE NEW ORLEANS LA
800 AM CST MON FEB 20 2017

NOTE: "FAIR" INDICATES FEW OR NO CLOUDS BELOW 12,000 FEET WITH NO
      SIGNIFICANT WEATHER AND/OR OBSTRUCTIONS TO VISIBILITY.
      SKY/WX - SKY CONDITION AND SIGNIFICANT WEATHER.
      TMP - AIR TEMPERATURE.     DP    - DEWPOINT TEMPERATURE.
      RH  - RELATIVE HUMIDITY.   PRES  - PRESSURE.
      HI  - HEAT INDEX.          WCI   - WIND CHILL INDEX.

*  THESE STATIONS ARE NOT NWS OR FAA STATIONS AND ARE NOT UNDER
   NWS QUALITY CONTROL.

LAZ038-040-048-061>063-065>067-069-201500-
SOUTHEAST LOUISIANA

CITY           SKY/WX    TMP DP  RH WIND       PRES   REMARKS
N.O. AUDUBON   NOT AVBL
N.O. INTL ARPT PTSUNNY   70  67  90 SE15      30.03S
N.O. LAKEFRONT CLOUDY    68  67  96 SE7       30.06R
N.O. DOWNTOWN*   N/A     69  66  90 SE8       30.05S
RESERVE*       PTSUNNY   71  69  93 SE7       30.05R
SLIDELL        CLOUDY    65  63  93 SE6       30.06R
BATON ROUGE    CLOUDY    69  66  90 SE6       30.04R
BOOTHVILLE     FOG       62  62 100 CALM      30.06S VSB<1/4
BELLE CHASSE   MOSUNNY   69  67  93 SE10G18   30.03F
BOGALUSA*      CLOUDY    62  59  88 SE7       30.08S
GALLIANO*      MOSUNNY   71  66  84 SE7       30.03S
NEW ROADS*     CLOUDY    67  66  95 SE3       30.05R
GONZALES*      CLOUDY    69  67  94 SE9       30.04R
HAMMOND*       CLOUDY    64  63  94 SE9       30.06R FOG
HOUMA*         PTSUNNY   70  70 100 SE12      30.02R
PORT FOURCHON* SUNNY     70  68  94 SE13      30.02F

$$

MSZ070-080>082-201500-
SOUTHERN MISSISSIPPI

CITY           SKY/WX    TMP DP  RH WIND       PRES   REMARKS
MCCOMB         FOG       60  58  92 SE8       30.07R VSB 1/4
GULFPORT       CLOUDY    65  65 100 E9        30.08R FOG
BILOXI         CLOUDY    64  64 100 E9        30.08S FOG
PASCAGOULA     FOG       62  60  93 N3        30.10R VSB 1/4
STENNIS ARPT*  PTSUNNY   63  61  94 E6        30.08R FOG

$$

COASTAL OBSERVATIONS
LAKE AND NEARSHORE STATIONS

STATION/POSITION TIME  TEMP    WIND        PRES    WAVE
                       AIR SEA DIR/SP/G            HT/PER
                 (UTC) (F)     (DEG/KT/KT) (MB)    (FT/S)
PASCAGOULA       1348   64     110/  8/ 11 1018.8
WAVELAND YACHT   1348   63 64  120/  8/ 10 1018.2
GRAND ISLE       1348   69 66  130/  8/ 12 1017.1
SOUTHWEST PASS   1348          130/ 14/ 17   N/A
NEW CANAL        1348   68 64  140/  7/ 14 1016.7
SHELL BEACH      1348   64 66  100/  7/  9 1017.9

OFFSHORE STATIONS

STATION/POSITION TIME  TEMP    WIND        PRES    WAVE
                       AIR SEA DIR/SP/G            HT/PER
                 (UTC) (F)     (DEG/KT/KT) (MB)    (FT/S)

$$





USA.gov is the U.S. government's official web portal to all federal, state and local government web resources and services.